Cullman, AL

7:02 PM CDT on June 26, 2017 (GMT -0500)
Cullman

Weather History for K3A1 - April, 2013

Change the Weather History Date:

Thursday, April 4, 2013

  Actual Average (KHSV) Record (KHSV)
Temperature  
Mean Temperature 43 °F -  
Max Temperature 45 °F 69 °F 89 °F (1969)
Min Temperature 41 °F 46 °F 26 °F (1944)
Degree Days  
Heating Degree Days 22    
Moisture  
Dew Point 42 °F    
Average Humidity 95    
Maximum Humidity 97    
Minimum Humidity 93    
Precipitation  
Precipitation 0.52 in - - ()
Sea Level Pressure  
Sea Level Pressure 30.02 in    
Wind  
Wind Speed 7 mph (East)    
Max Wind Speed 15 mph    
Max Gust Speed 23 mph    
Visibility 5 miles    
Events Rain    
Averages and records for this station are not official NWS values.
T = Trace of Precipitation, MM = Missing Value Source: NWS Daily Summary

Daily Weather History Graph

Daily Weather History Graph

Search for Another Location

Airport or City:

Trip Planner

Search our weather history database for the weather conditions in past years. The results will help you decide how hot, cold, wet, or windy it might be!

Date:

Astronomy

Apr. 04, 2013 Rise Set
Actual Time 6:30 AM CDT 7:10 PM CDT
Civil Twilight 6:04 AM CDT 7:36 PM CDT
Nautical Twilight 5:35 AM CDT 8:06 PM CDT
Astronomical Twilight 5:04 AM CDT 8:36 PM CDT
Moon 2:42 AM CDT (4/4) 1:42 PM CDT (4/4)
Length of Visible Light 13h 31m
Length of Day
12h 40m
Waning Crescent, 33% of the Moon is Illuminated
Apr 4
Waning Crescent
Apr 10
New
Apr 18
First Quarter
Apr 25
Full
May 2
Last Quarter

Hourly Weather History & Observations

Time (CDT) Temp. Windchill Dew Point Humidity Pressure Visibility Wind Dir Wind Speed Gust Speed Precip Events Conditions
12:15 AM 43.9 °F 39.9 °F 42.4 °F 95% 30.12 in 5.0 mi ENE 6.9 mph - 0.02 in Rain Light Rain
12:35 AM 44.1 °F 40.1 °F 42.8 °F 95% 30.12 in 7.0 mi NE 6.9 mph - 0.03 in Rain Rain
12:55 AM 44.1 °F 41.5 °F 42.8 °F 95% 30.11 in 7.0 mi ENE 4.6 mph - 0.05 in Rain Light Rain
1:15 AM 44.1 °F 39.5 °F 43.0 °F 96% 30.09 in 5.0 mi ENE 8.1 mph - 0.03 in Rain Rain
1:35 AM 44.1 °F 40.8 °F 43.0 °F 96% 30.08 in 5.0 mi ENE 5.8 mph - 0.05 in Rain Rain
1:55 AM 44.4 °F 41.2 °F 43.3 °F 96% 30.07 in 5.0 mi ENE 5.8 mph - 0.06 in Rain Light Rain
2:15 AM 44.6 °F 41.4 °F 43.5 °F 96% 30.06 in 5.0 mi ENE 5.8 mph - 0.01 in Rain Light Rain
2:35 AM 44.6 °F 40.2 °F 43.7 °F 97% 30.05 in 7.0 mi ENE 8.1 mph - 0.02 in Rain Light Rain
2:55 AM 45.0 °F 40.6 °F 43.9 °F 96% 30.04 in 5.0 mi ENE 8.1 mph - 0.03 in Rain Rain
3:15 AM 45.0 °F 41.2 °F 43.9 °F 96% 30.03 in 4.0 mi ENE 6.9 mph - 0.05 in Rain Rain
3:35 AM 45.3 °F 38.7 °F 44.1 °F 95% 30.01 in 7.0 mi East 15.0 mph 19.6 mph 0.07 in Rain Light Rain
3:55 AM 45.5 °F 41.8 °F 44.1 °F 95% 30.01 in 7.0 mi East 6.9 mph - 0.08 in Rain Light Rain
4:15 AM 45.5 °F 42.5 °F 44.1 °F 95% 30.01 in 5.0 mi East 5.8 mph - 0.06 in Rain Rain
4:35 AM 45.5 °F 41.3 °F 44.1 °F 95% 30.01 in 7.0 mi East 8.1 mph 18.4 mph 0.08 in Rain Heavy Rain
4:55 AM 45.1 °F 40.3 °F 43.7 °F 95% 30.01 in 5.0 mi ESE 9.2 mph 18.4 mph 0.11 in Rain Rain
5:15 AM 44.8 °F 39.0 °F 43.3 °F 95% 30.01 in 5.0 mi East 11.5 mph 19.6 mph 0.02 in Rain Light Rain
5:35 AM 44.4 °F 39.5 °F 43.0 °F 95% 30.01 in 4.0 mi East 9.2 mph 21.9 mph 0.03 in Rain Light Rain
5:55 AM 44.1 °F 38.6 °F 42.8 °F 95% 30.02 in 4.0 mi East 10.4 mph 23.0 mph 0.04 in Rain Light Rain
6:15 AM 43.9 °F 38.8 °F 42.4 °F 95% 30.02 in 4.0 mi East 9.2 mph 20.7 mph 0.01 in Rain Light Rain
6:35 AM 43.7 °F 39.1 °F 42.1 °F 94% 30.02 in 4.0 mi East 8.1 mph 19.6 mph 0.02 in Rain Light Rain
6:55 AM 43.7 °F 37.7 °F 42.1 °F 94% 30.03 in 4.0 mi East 11.5 mph 18.4 mph 0.03 in Rain Light Rain
7:15 AM 43.7 °F 38.1 °F 42.3 °F 95% 30.03 in 2.5 mi East 10.4 mph 17.3 mph 0.03 in Rain Rain
7:35 AM 43.7 °F 38.1 °F 42.3 °F 95% 30.03 in 4.0 mi East 10.4 mph 20.7 mph 0.04 in Rain Light Rain
7:55 AM 43.7 °F 37.7 °F 42.3 °F 95% 30.03 in 3.0 mi East 11.5 mph 19.6 mph 0.04 in Rain Light Rain
8:15 AM 43.7 °F 36.6 °F 42.1 °F 94% 30.04 in 4.0 mi ESE 15.0 mph 21.9 mph N/A   Light Drizzle
8:35 AM 43.7 °F 39.1 °F 42.1 °F 94% 30.03 in 5.0 mi East 8.1 mph 16.1 mph N/A   Drizzle
8:55 AM 43.7 °F 37.3 °F 41.9 °F 93% 30.03 in 4.0 mi ESE 12.7 mph 18.4 mph 0.01 in   Light Drizzle
9:15 AM 43.7 °F 37.3 °F 42.1 °F 94% 30.03 in 2.5 mi East 12.7 mph 18.4 mph N/A Rain Light Rain
9:35 AM 43.9 °F 38.8 °F 42.3 °F 94% 30.02 in 3.0 mi ESE 9.2 mph 21.9 mph N/A Rain Light Rain
9:55 AM 43.9 °F 38.8 °F 42.3 °F 94% 30.03 in 10.0 mi ESE 9.2 mph 16.1 mph N/A Rain Light Rain
10:15 AM 43.9 °F 37.2 °F 42.1 °F 93% 30.04 in 2.5 mi East 13.8 mph 18.4 mph 0.01 in Rain Rain
10:35 AM 43.7 °F 38.1 °F 42.1 °F 94% 30.04 in 2.0 mi East 10.4 mph 18.4 mph 0.03 in Rain Light Rain
10:55 AM 43.7 °F 39.1 °F 42.4 °F 95% 30.05 in 3.0 mi East 8.1 mph - 0.04 in Rain Light Rain
11:35 AM 43.9 °F 39.3 °F 42.6 °F 95% 30.05 in 2.5 mi East 8.1 mph - 0.02 in Rain Rain
11:55 AM 43.9 °F 39.3 °F 42.6 °F 95% 30.03 in 3.0 mi ESE 8.1 mph 16.1 mph 0.02 in   Light Drizzle
12:15 PM 44.1 °F 40.1 °F 42.6 °F 95% 30.03 in 4.0 mi East 6.9 mph - N/A   Overcast
12:35 PM 44.2 °F 41.0 °F 42.6 °F 94% 30.02 in 4.0 mi East 5.8 mph 16.1 mph N/A   Overcast
12:55 PM 44.1 °F 39.5 °F 42.4 °F 94% 30.02 in 5.0 mi ESE 8.1 mph 18.4 mph N/A   Overcast
1:15 PM 44.1 °F 39.0 °F 42.3 °F 93% 30.01 in 7.0 mi East 9.2 mph - N/A   Overcast
1:35 PM 44.1 °F 40.1 °F 42.3 °F 93% 30.01 in 2.5 mi East 6.9 mph - N/A   Light Drizzle
1:55 PM 43.9 °F 40.5 °F 42.3 °F 94% 30.01 in 2.0 mi ESE 5.8 mph - N/A   Light Drizzle
2:15 PM 43.9 °F 39.9 °F 42.6 °F 95% 30.00 in 4.0 mi East 6.9 mph - N/A   Overcast
2:35 PM 44.1 °F 42.5 °F 42.6 °F 95% 30.00 in 4.0 mi East 3.5 mph - N/A   Overcast
2:55 PM 43.9 °F 41.3 °F 42.6 °F 95% 29.99 in 4.0 mi East 4.6 mph - N/A   Overcast
3:15 PM 43.9 °F 40.5 °F 42.4 °F 95% 29.99 in 4.0 mi East 5.8 mph - N/A   Overcast
3:35 PM 43.7 °F 38.6 °F 42.3 °F 95% 29.98 in 3.0 mi East 9.2 mph - N/A   Overcast
3:55 PM 43.5 °F 39.4 °F 42.1 °F 95% 29.98 in 3.0 mi East 6.9 mph - N/A   Overcast
4:15 PM 43.3 °F 39.2 °F 41.9 °F 95% 29.98 in 5.0 mi East 6.9 mph - N/A   Overcast
4:35 PM 43.3 °F 39.2 °F 41.9 °F 95% 29.98 in 5.0 mi East 6.9 mph - N/A   Overcast
4:55 PM 43.3 °F 40.7 °F 41.7 °F 94% 29.98 in 7.0 mi East 4.6 mph - N/A   Overcast
5:15 PM 43.2 °F 41.5 °F 41.4 °F 93% 29.98 in 10.0 mi East 3.5 mph - N/A   Overcast
5:35 PM 43.2 °F 38.4 °F 41.5 °F 94% 29.99 in 5.0 mi East 8.1 mph - N/A   Overcast
5:55 PM 43.0 °F 38.8 °F 41.0 °F 93% 29.98 in 10.0 mi East 6.9 mph - N/A   Overcast
6:15 PM 42.8 °F 39.3 °F 41.2 °F 94% 29.98 in 3.0 mi East 5.8 mph - N/A   Overcast
6:35 PM 42.4 °F - 41.4 °F 96% 29.97 in 2.5 mi Calm Calm - N/A   Overcast
6:55 PM 42.1 °F 38.4 °F 41.2 °F 97% 29.97 in 5.0 mi East 5.8 mph - N/A   Overcast
7:15 PM 41.9 °F 39.0 °F 41.0 °F 97% 29.97 in 10.0 mi East 4.6 mph - N/A   Overcast
7:35 PM 41.9 °F 40.0 °F 40.6 °F 95% 29.96 in 10.0 mi East 3.5 mph - N/A   Overcast
7:55 PM 41.9 °F 40.0 °F 40.6 °F 95% 29.97 in 7.0 mi East 3.5 mph - N/A   Drizzle
8:15 PM 41.7 °F 39.8 °F 40.5 °F 95% 29.98 in 7.0 mi ENE 3.5 mph - N/A   Light Drizzle
8:35 PM 41.5 °F 38.6 °F 40.3 °F 95% 29.99 in 10.0 mi ENE 4.6 mph - N/A   Overcast
8:55 PM 41.7 °F - 40.1 °F 94% 29.99 in 10.0 mi Calm Calm - N/A   Drizzle
9:15 PM 41.7 °F - 40.3 °F 95% 30.00 in 7.0 mi Calm Calm - N/A   Light Drizzle
9:35 PM 41.7 °F 39.8 °F 40.5 °F 95% 30.00 in 7.0 mi NNE 3.5 mph - N/A   Overcast
9:55 PM 41.7 °F 39.8 °F 40.5 °F 95% 30.00 in 7.0 mi East 3.5 mph - N/A   Overcast
10:15 PM 41.5 °F 38.6 °F 40.3 °F 95% 30.01 in 7.0 mi NE 4.6 mph - N/A Rain Light Rain
10:35 PM 41.5 °F 38.6 °F 40.3 °F 95% 30.00 in 7.0 mi NE 4.6 mph - N/A Rain Light Rain
10:55 PM 41.4 °F 39.4 °F 40.1 °F 95% 30.00 in 7.0 mi NE 3.5 mph - 0.01 in   Light Drizzle
11:15 PM 41.4 °F 38.4 °F 40.1 °F 95% 30.00 in 7.0 mi NE 4.6 mph - N/A   Overcast
11:35 PM 41.4 °F 39.4 °F 40.1 °F 95% 30.00 in 7.0 mi NE 3.5 mph - N/A   Overcast
11:55 PM 41.4 °F 38.4 °F 40.3 °F 96% 30.00 in 7.0 mi NNE 4.6 mph - N/A   Overcast